Location: Fredericksburg
(30.2750°N, 98.8720°W)
Time: 04:56:55
(UTC-05:00)

Amateur Radio Satellites - All Passes

Search period start: 27 August 2016 04:26
Search period end: 28 August 2016 04:26
Location: Fredericksburg, 30.2750°N, 98.8720°W

Satellite Date Start Highest point End Downlink Frequencies (MHz)
Time Altitude Azimuth
STARS 27 Aug 04:30:38 04:33:53 20° 70° (ENE) 04:37:07 437.465
AO-7 27 Aug 04:59:58 05:08:09 60° 104° (ESE) 05:16:16 29.400- 29.500
CUBESAT XI-V 27 Aug 05:10:40 05:13:37 17° 69° (ENE) 05:16:34 437.345
KKS-1 27 Aug 05:28:01 05:32:05 35° 261° (W) 05:36:12 437.445
MOZHAYETS 4 27 Aug 05:28:44 05:32:37 27° 263° (W) 05:36:31
YUBILEINY 27 Aug 05:32:01 05:33:28 10° 78° (ENE) 05:34:55 435.215
ITAMSAT 1 27 Aug 05:33:26 05:37:26 23° 291° (WNW) 05:41:27 435.822/435.867
RS-15 27 Aug 05:36:24 05:42:05 14° 331° (NNW) 05:47:54 29.354- 29.394
PHONESAT 2.4 27 Aug 05:37:28 05:38:40 12° 2° (N) 05:39:51 2401.200-2431.200
AO-85 27 Aug 05:45:52 05:51:07 55° 114° (ESE) 05:56:10 145.980
STARS 27 Aug 06:06:16 06:10:01 27° 262° (W) 06:13:46 437.465
Cosmos 2491 27 Aug 06:13:41 06:22:20 56° 81° (E) 06:30:57 435.465 / 435.565
NOAA 15 27 Aug 06:33:19 06:36:19 15° 94° (E) 06:39:19 137.62
GOMX 1 27 Aug 06:33:37 06:35:09 11° 90° (E) 06:36:40 467.674
CUBESAT XI-V 27 Aug 06:46:31 06:50:40 34° 262° (W) 06:54:52 437.345
HORYU 2 27 Aug 06:46:39 06:51:03 74° 284° (WNW) 06:55:26 437.375
BRITE-PL 27 Aug 06:50:40 06:56:09 47° 99° (E) 07:01:26 437.365/2234.400
AO-7 27 Aug 06:53:55 07:00:17 25° 299° (WNW) 07:06:39 29.400- 29.500
NOAA 18 27 Aug 07:03:08 07:07:12 21° 96° (E) 07:11:13 137.9125
PHONESAT 2.4 27 Aug 07:13:17 07:15:43 22° 19° (NNE) 07:18:07 2401.200-2431.200
YUBILEINY 27 Aug 07:19:58 07:28:47 80° 93° (E) 07:37:37 435.215
AO-85 27 Aug 07:28:23 07:31:49 17° 307° (NW) 07:35:10 145.980
LilacSat-2 27 Aug 07:29:00 07:32:38 45° 99° (E) 07:36:14 437.200
STRAND 1 27 Aug 07:50:04 07:54:59 49° 73° (ENE) 07:59:51 437.568
Cubesat XI-IV 27 Aug 07:55:31 08:00:51 86° 103° (ESE) 08:06:10 437.490
Cosmos 2504 27 Aug 07:57:59 08:06:12 51° 91° (E) 08:13:56 435.465 / 435.565
CUTE-I 27 Aug 08:07:38 08:12:55 71° 285° (WNW) 08:18:12 437.470
GOMX 1 27 Aug 08:08:19 08:13:38 63° 285° (WNW) 08:18:38 467.674
NOAA 15 27 Aug 08:11:09 08:16:15 49° 287° (WNW) 08:21:21 137.62
Cosmos 2491 27 Aug 08:11:49 08:18:29 25° 276° (W) 08:25:11 435.465 / 435.565
ISS 27 Aug 08:15:03 08:17:30 20° 127° (SE) 08:20:00 145.825
DOVE 4 27 Aug 08:18:14 08:23:12 70° 101° (E) 08:27:51 437.250
CANX-2 27 Aug 08:23:36 08:25:45 14° 94° (E) 08:27:55 2200.000
CUTE 1.7 + AOD 2 27 Aug 08:29:47 08:31:59 14° 94° (E) 08:34:13 437.475
BRITE-PL 27 Aug 08:30:15 08:34:07 19° 292° (WNW) 08:37:55 437.365/2234.400
NOAA 18 27 Aug 08:42:53 08:47:52 37° 289° (WNW) 08:52:50 137.9125
SO-50 27 Aug 08:47:26 08:48:57 11° 49° (NE) 08:50:27 436.795
PHONESAT 2.4 27 Aug 08:49:16 08:52:11 55° 213° (SSW) 08:55:07 2401.200-2431.200
CINEMA 3 27 Aug 09:03:27 09:07:48 53° 99° (E) 09:11:58 145.822/145.860
YUBILEINY 27 Aug 09:21:16 09:26:23 16° 290° (WNW) 09:31:33 435.215
UWE-3 27 Aug 09:25:48 09:27:43 13° 94° (E) 09:29:38 435.000/436.395/437.385
CUBEBUG 2 27 Aug 09:25:50 09:29:05 21° 96° (E) 09:32:16 437.445
STRAND 1 27 Aug 09:31:40 09:34:18 14° 266° (W) 09:36:57 437.568
HO-68 27 Aug 09:32:49 09:40:00 79° 104° (ESE) 09:47:08 435.675
SEEDS 27 Aug 09:37:05 09:41:17 71° 101° (E) 09:45:29 437.485
ZACube-1 27 Aug 09:41:49 09:43:31 12° 94° (E) 09:45:11 437.345
ISS 27 Aug 09:51:06 09:53:51 24° 320° (NW) 09:56:36 145.825
Cosmos 2504 27 Aug 09:52:45 09:59:40 27° 284° (WNW) 10:06:17 435.465 / 435.565
BEESAT 3 27 Aug 09:54:20 09:57:56 38° 113° (ESE) 10:01:34 437.485
PRISM 27 Aug 09:55:13 09:59:13 62° 258° (WSW) 10:03:17 437.425
CANX-2 27 Aug 09:57:49 10:01:39 34° 286° (WNW) 10:05:30 2200.000
CUTE 1.7 + AOD 2 27 Aug 10:04:03 10:07:52 34° 286° (WNW) 10:11:42 437.475
JUGNU 27 Aug 10:05:53 10:08:30 13° 162° (SSE) 10:11:06 437.505
TIGRISAT 27 Aug 10:08:40 10:10:52 13° 69° (ENE) 10:13:04 435.000
AAUSAT CUBESAT 2 27 Aug 10:09:48 10:13:58 87° 282° (WNW) 10:18:08 437.432
RS-15 27 Aug 10:12:07 10:22:19 29° 45° (NE) 10:32:18 29.354- 29.394
AIST 1 27 Aug 10:15:02 10:19:20 89° 112° (ESE) 10:23:43
COMPASS 1 27 Aug 10:17:26 10:21:30 51° 284° (WNW) 10:25:33 437.405
DELFI C3 27 Aug 10:19:40 10:21:44 14° 95° (E) 10:23:49 145.870
SO-50 27 Aug 10:25:20 10:29:50 63° 245° (WSW) 10:34:11 436.795
UNISAT 6 27 Aug 10:35:07 10:39:08 30° 73° (ENE) 10:43:05 437.425
Oscar 11 27 Aug 10:47:42 10:52:01 85° 285° (WNW) 10:56:20 145.826/435.025
FUNcube-1 27 Aug 10:54:34 10:58:42 75° 282° (WNW) 11:02:48 145.935
UWE-3 27 Aug 11:00:30 11:04:15 33° 286° (WNW) 11:07:58 435.000/436.395/437.385
CUBEBUG 2 27 Aug 11:02:24 11:05:34 21° 289° (WNW) 11:08:40 437.445
ANTELSAT 27 Aug 11:11:23 11:16:02 81° 78° (ENE) 11:20:36 437.575/2403.000
BEESAT 2 27 Aug 11:12:36 11:16:20 43° 300° (WNW) 11:20:08 435.950
ZACube-1 27 Aug 11:16:06 11:19:52 35° 286° (WNW) 11:23:39 437.345
CUSAT 1 27 Aug 11:19:25 11:26:11 66° 82° (E) 11:34:02 437.405
HO-68 27 Aug 11:22:56 11:26:51 16° 299° (WNW) 11:30:46 435.675
POPSAT HIP 1 27 Aug 11:26:22 11:28:17 13° 68° (ENE) 11:30:12 437.405
BEESAT 3 27 Aug 11:33:52 11:35:44 13° 307° (NW) 11:37:37 437.485
GONETS M04 27 Aug 11:38:18 11:44:18 21° 83° (E) 11:50:19
TIGRISAT 27 Aug 11:42:42 11:47:09 45° 260° (W) 11:51:31 435.000
JUGNU 27 Aug 11:52:14 11:56:56 24° 170° (S) 12:01:38 437.505
DUCHIFAT 1 27 Aug 11:52:55 11:56:21 24° 72° (ENE) 11:59:48 145.980
DELFI C3 27 Aug 11:53:04 11:56:35 30° 286° (WNW) 12:00:07 145.870
QB50P2 27 Aug 11:54:34 11:58:21 31° 73° (ENE) 12:02:09 145.880/145.840
POLYITAN 1 27 Aug 11:57:04 12:00:53 32° 73° (ENE) 12:04:41 437.675
NANOSAT C BR1 27 Aug 12:05:56 12:09:52 38° 74° (ENE) 12:13:49 145.865
HUMSAT D 27 Aug 12:06:03 12:10:00 50° 285° (WNW) 12:13:58 437.325/437.525
CUBEBUG 1 27 Aug 12:07:00 12:07:59 11° 93° (E) 12:09:00 437.445
DANDE 27 Aug 12:11:36 12:17:27 71° 83° (E) 12:24:57 436.750
UNISAT 6 27 Aug 12:12:26 12:15:47 19° 264° (W) 12:19:05 437.425
AUBIESAT-1 27 Aug 12:18:29 12:21:55 29° 101° (ESE) 12:25:06 437.475
M-CUBED/EXP-1 PRIME 27 Aug 12:23:33 12:27:23 45° 103° (ESE) 12:30:54 437.505
RS-15 27 Aug 12:23:43 12:36:05 79° 246° (WSW) 12:48:04 29.354- 29.394
PCSat 27 Aug 12:30:03 12:35:27 82° 115° (ESE) 12:40:53 145.827
ESTCUBE 1 27 Aug 12:39:42 12:44:06 48° 100° (E) 12:48:28 437.505/2401.250
BUGSAT 1 27 Aug 12:49:02 12:53:06 47° 75° (ENE) 12:57:12 437.445
QB50P1 27 Aug 12:49:29 12:53:39 52° 260° (W) 12:57:50 145.935-145.965
50 SAT 27 Aug 12:49:57 12:53:08 28° 98° (E) 12:56:19 437.505
AISAT 27 Aug 12:49:59 12:53:59 32° 98° (E) 12:57:57 437.250
Cosmos 2499 27 Aug 12:56:38 13:04:52 62° 92° (E) 13:12:29 435.465 / 435.565
POPSAT HIP 1 27 Aug 12:59:38 13:03:39 40° 261° (W) 13:07:41 437.405
UKube-1 27 Aug 13:01:42 13:04:53 20° 96° (E) 13:08:03 .
CUSAT 1 27 Aug 13:03:05 13:07:50 19° 271° (W) 13:12:58 437.405
JAS-2 27 Aug 13:03:32 13:08:41 76° 75° (ENE) 13:14:01 435.910
AIST 2 27 Aug 13:20:31 13:24:28 49° 300° (WNW) 13:28:28 435.215
DUCHIFAT 1 27 Aug 13:28:47 13:31:55 20° 264° (W) 13:35:04 145.980
SRMSAT 27 Aug 13:28:52 13:33:02 20° 166° (SSE) 13:37:11 437.500
QB50P2 27 Aug 13:31:36 13:34:09 15° 265° (W) 13:36:42 145.880/145.840
GONETS M04 27 Aug 13:31:38 13:40:15 64° 278° (W) 13:48:59
POLYITAN 1 27 Aug 13:34:09 13:36:41 15° 265° (W) 13:39:12 437.675
VELOX 1 27 Aug 13:37:01 13:41:27 68° 284° (WNW) 13:45:51 145.980
CUBEBUG 1 27 Aug 13:40:12 13:44:27 47° 285° (WNW) 13:48:40 437.445
JUGNU 27 Aug 13:40:23 13:45:29 30° 180° (S) 13:50:34 437.505
NANOSAT C BR1 27 Aug 13:43:51 13:45:41 13° 266° (W) 13:47:32 145.865
Oscar 19 27 Aug 13:52:09 13:56:57 41° 73° (ENE) 14:01:47 437.125/150
AUBIESAT-1 27 Aug 13:53:58 13:56:02 14° 297° (WNW) 13:58:01 437.475
DX 1 27 Aug 13:55:33 13:59:52 62° 285° (WNW) 14:04:10 434.975-435.025
DANDE 27 Aug 13:56:46 14:00:02 15° 269° (W) 14:03:39 436.750
SPROUT 27 Aug 13:59:18 14:03:34 74° 283° (WNW) 14:07:48 437.525
PCSat 27 Aug 14:17:42 14:19:27 11° 309° (NW) 14:21:11 145.827
O/OREOS (USA 219) 27 Aug 14:18:10 14:22:26 47° 105° (ESE) 14:26:46 437.305
ESTCUBE 1 27 Aug 14:18:40 14:20:25 12° 293° (WNW) 14:22:11 437.505/2401.250
TISAT 1 27 Aug 14:19:56 14:23:41 32° 98° (E) 14:27:25 437.305
50 SAT 27 Aug 14:24:52 14:26:23 12° 290° (WNW) 14:27:54 437.505
AISAT 27 Aug 14:27:18 14:30:09 17° 291° (WNW) 14:32:59 437.250
UKube-1 27 Aug 14:37:16 14:40:50 25° 289° (WNW) 14:44:22 .
RS-15 27 Aug 14:41:15 14:46:34 14° 262° (W) 14:51:50 29.354- 29.394
ITUPSAT 1 27 Aug 14:49:03 14:50:00 11° 93° (E) 14:50:56 437.325
Cosmos 2499 27 Aug 14:52:26 14:58:13 21° 285° (WNW) 15:03:46 435.465 / 435.565
Gurwin Techsat 1B 27 Aug 14:59:37 15:04:55 89° 77° (ENE) 15:10:16 435.225
ITAMSAT 1 27 Aug 15:06:12 15:10:33 28° 70° (ENE) 15:14:53 435.822/435.867
SRMSAT 27 Aug 15:16:40 15:21:41 29° 176° (S) 15:26:42 437.500
SWISSCUBE 27 Aug 15:19:21 15:23:31 30° 98° (E) 15:27:40 437.505
JUGNU 27 Aug 15:29:20 15:34:01 24° 190° (S) 15:38:40 437.505
Oscar 19 27 Aug 15:33:03 15:36:21 17° 265° (W) 15:39:41 437.125/150
BEESAT 27 Aug 15:36:15 15:40:45 42° 100° (E) 15:45:14 436.000
AO-7 27 Aug 15:52:28 16:00:24 50° 68° (ENE) 16:08:19 29.400- 29.500
TISAT 1 27 Aug 15:56:37 15:59:00 15° 291° (WNW) 16:01:23 437.305
O/OREOS (USA 219) 27 Aug 16:00:20 16:02:05 12° 299° (WNW) 16:03:49 437.305
AO-85 27 Aug 16:04:06 16:08:10 70° 246° (WSW) 16:12:01 145.980
ISS 27 Aug 16:23:12 16:25:46 21° 39° (NE) 16:28:19 145.825
ITUPSAT 1 27 Aug 16:23:24 16:28:04 56° 285° (WNW) 16:32:43 437.325
ITAMSAT 1 27 Aug 16:45:34 16:49:53 26° 263° (W) 16:54:12 435.822/435.867
SWISSCUBE 27 Aug 16:57:33 17:01:04 21° 291° (WNW) 17:04:35 437.505
SRMSAT 27 Aug 17:05:26 17:10:22 28° 186° (S) 17:15:19 437.500
BEESAT 27 Aug 17:15:24 17:18:07 15° 292° (WNW) 17:20:50 436.000
JUGNU 27 Aug 17:19:52 17:22:27 13° 198° (SSW) 17:25:02 437.505
KKS-1 27 Aug 17:24:11 17:28:38 69° 102° (ESE) 17:33:02 437.445
MOZHAYETS 4 27 Aug 17:28:34 17:33:08 77° 283° (WNW) 17:37:42
YUBILEINY 27 Aug 17:38:23 17:45:47 30° 75° (ENE) 17:53:05 435.215
HORYU 2 27 Aug 17:38:44 17:43:01 48° 74° (ENE) 17:47:19 437.375
AO-7 27 Aug 17:46:13 17:53:13 30° 261° (W) 18:00:17 29.400- 29.500
NOAA 15 27 Aug 17:48:29 17:51:11 14° 66° (ENE) 17:53:55 137.62
CUTE-I 27 Aug 17:48:50 17:49:33 10° 64° (ENE) 17:50:16 437.470
BRITE-PL 27 Aug 17:56:06 18:00:01 26° 70° (ENE) 18:04:12 437.365/2234.400
ISS 27 Aug 17:59:27 18:02:10 24° 232° (SW) 18:04:52 145.825
STARS 27 Aug 18:00:33 18:04:57 86° 106° (ESE) 18:09:18 437.465
LilacSat-2 27 Aug 18:08:03 18:08:54 11° 69° (ENE) 18:09:45 437.200
NOAA 18 27 Aug 18:23:45 18:28:07 24° 68° (ENE) 18:32:30 137.9125
CUBESAT XI-V 27 Aug 18:48:08 18:52:51 89° 299° (WNW) 18:57:33 437.345
SRMSAT 27 Aug 18:55:10 18:59:01 18° 195° (SSW) 19:02:52 437.500
Cosmos 2491 27 Aug 19:07:07 19:15:47 77° 93° (E) 19:24:31 435.465 / 435.565
GOMX 1 27 Aug 19:09:37 19:14:31 74° 76° (ENE) 19:19:47 467.674
Cubesat XI-IV 27 Aug 19:11:38 19:16:58 81° 76° (ENE) 19:22:20 437.490
DOVE 4 27 Aug 19:17:02 19:21:42 38° 73° (ENE) 19:26:33 437.250
HORYU 2 27 Aug 19:18:35 19:19:44 11° 266° (W) 19:20:53 437.375
CUTE-I 27 Aug 19:23:33 19:28:53 76° 257° (WSW) 19:34:13 437.470
NOAA 15 27 Aug 19:25:20 19:30:26 54° 259° (W) 19:35:35 137.62
YUBILEINY 27 Aug 19:34:27 19:42:40 47° 271° (W) 19:50:49 435.215
BRITE-PL 27 Aug 19:34:35 19:38:23 24° 266° (W) 19:42:26 437.365/2234.400
BEESAT 2 27 Aug 19:36:34 19:39:18 17° 55° (NE) 19:42:01 435.950
LilacSat-2 27 Aug 19:39:12 19:42:48 37° 261° (W) 19:46:23 437.200
Cosmos 2504 27 Aug 19:50:35 19:57:47 80° 84° (E) 20:04:59 435.465 / 435.565
BEESAT 3 27 Aug 19:53:53 19:57:48 58° 62° (ENE) 20:01:40 437.485
HO-68 27 Aug 19:55:35 20:01:48 33° 67° (ENE) 20:08:00 435.675
CINEMA 3 27 Aug 19:58:50 20:03:03 28° 72° (ENE) 20:07:16 145.822/145.860
NOAA 18 27 Aug 20:03:32 20:08:32 34° 261° (W) 20:13:31 137.9125
STRAND 1 27 Aug 20:06:48 20:11:04 27° 97° (E) 20:15:20 437.568
CUBEBUG 2 27 Aug 20:20:10 20:21:32 11° 68° (ENE) 20:22:53 437.445
SEEDS 27 Aug 20:23:45 20:26:59 22° 72° (ENE) 20:30:14 437.485
AIST 1 27 Aug 20:29:58 20:31:57 13° 75° (ENE) 20:33:55
CANX-2 27 Aug 20:44:10 20:48:21 75° 78° (ENE) 20:52:33 2200.000
CUTE 1.7 + AOD 2 27 Aug 20:50:16 20:54:27 77° 77° (ENE) 20:58:39 437.475
AAUSAT CUBESAT 2 27 Aug 20:54:39 20:58:07 27° 73° (ENE) 21:01:35 437.432
DOVE 4 27 Aug 20:55:51 20:59:26 19° 266° (W) 21:03:08 437.250
COMPASS 1 27 Aug 21:02:12 21:06:07 45° 75° (ENE) 21:10:03 437.405
Cosmos 2491 27 Aug 21:08:09 21:13:23 17° 290° (WNW) 21:18:41 435.465 / 435.565
BEESAT 2 27 Aug 21:13:40 21:17:06 28° 248° (WSW) 21:20:32 435.950
PCSat 27 Aug 21:24:45 21:28:42 20° 56° (NE) 21:32:38 145.827
CINEMA 3 27 Aug 21:35:57 21:40:01 25° 264° (W) 21:44:08 145.822/145.860
Oscar 11 27 Aug 21:36:49 21:40:41 33° 74° (ENE) 21:44:34 145.826/435.025
HO-68 27 Aug 21:42:42 21:49:16 38° 260° (W) 21:55:53 435.675
PRISM 27 Aug 21:42:42 21:46:16 27° 98° (E) 21:49:48 437.425
FUNcube-1 27 Aug 21:44:01 21:48:11 39° 74° (ENE) 21:52:17 145.935
STRAND 1 27 Aug 21:45:53 21:50:06 27° 290° (WNW) 21:54:19 437.568
AIST 2 27 Aug 21:47:51 21:50:50 19° 55° (NE) 21:53:48 435.215
Cosmos 2504 27 Aug 21:48:02 21:50:08 11° 279° (W) 21:52:14 435.465 / 435.565
UWE-3 27 Aug 21:50:34 21:55:11 87° 77° (ENE) 21:59:43 435.000/436.395/437.385
CUBEBUG 2 27 Aug 21:53:00 21:57:38 56° 260° (W) 22:02:12 437.445
SEEDS 27 Aug 21:59:27 22:02:34 20° 264° (W) 22:05:41 437.485
ZACube-1 27 Aug 22:05:09 22:09:39 80° 78° (ENE) 22:14:05 437.345
AIST 1 27 Aug 22:05:36 22:09:39 37° 268° (W) 22:13:40
AAUSAT CUBESAT 2 27 Aug 22:30:59 22:33:33 16° 265° (W) 22:36:09 437.432
DELFI C3 27 Aug 22:32:32 22:36:24 63° 77° (ENE) 22:40:17 145.870
HUMSAT D 27 Aug 22:51:14 22:55:15 47° 75° (ENE) 22:59:14 437.325/437.525
SO-50 27 Aug 22:55:51 22:58:09 13° 107° (ESE) 23:00:25 436.795
AUBIESAT-1 27 Aug 22:58:40 23:01:55 19° 65° (ENE) 23:05:11 437.475
Cosmos 2499 27 Aug 22:58:55 23:00:38 11° 70° (ENE) 23:02:21 435.465 / 435.565
M-CUBED/EXP-1 PRIME 27 Aug 23:03:40 23:07:33 27° 67° (ENE) 23:11:31 437.505
PCSat 27 Aug 23:07:08 23:12:14 44° 251° (WSW) 23:17:19 145.827
ANTELSAT 27 Aug 23:09:36 23:13:06 24° 97° (E) 23:16:34 437.575/2403.000
Oscar 11 27 Aug 23:14:28 23:16:50 14° 265° (W) 23:19:14 145.826/435.025
PRISM 27 Aug 23:18:30 23:21:19 18° 290° (WNW) 23:24:08 437.425
FUNcube-1 27 Aug 23:22:18 23:24:28 13° 266° (W) 23:26:38 145.935
AIST 2 27 Aug 23:25:40 23:29:17 29° 249° (WSW) 23:32:55 435.215
ESTCUBE 1 27 Aug 23:34:14 23:37:40 22° 71° (ENE) 23:41:07 437.505/2401.250
TIGRISAT 27 Aug 23:39:56 23:44:07 57° 100° (E) 23:48:17 435.000
AISAT 27 Aug 23:43:00 23:45:30 15° 68° (ENE) 23:48:01 437.250
GONETS M04 27 Aug 23:49:08 23:57:42 51° 80° (E) 00:06:10
UNISAT 6 28 Aug 00:08:38 00:12:49 55° 285° (WNW) 00:16:57 437.425
JAS-2 28 Aug 00:18:43 00:23:04 17° 94° (E) 00:27:34 435.910
CUSAT 1 28 Aug 00:19:13 00:21:53 87° 97° (E) 00:25:03 437.405
VELOX 1 28 Aug 00:28:19 00:32:35 49° 75° (ENE) 00:36:53 145.980
RS-15 28 Aug 00:29:46 00:38:27 26° 102° (ESE) 00:47:25 29.354- 29.394
CUBEBUG 1 28 Aug 00:29:52 00:34:12 66° 76° (ENE) 00:38:35 437.445
AUBIESAT-1 28 Aug 00:31:52 00:36:01 34° 257° (WSW) 00:40:16 437.475
SO-50 28 Aug 00:33:25 00:38:09 52° 300° (WNW) 00:42:53 436.795
O/OREOS (USA 219) 28 Aug 00:33:53 00:38:07 36° 68° (ENE) 00:42:21 437.305
M-CUBED/EXP-1 PRIME 28 Aug 00:38:11 00:41:55 24° 260° (W) 00:45:44 437.505
BUGSAT 1 28 Aug 00:39:38 00:40:13 10° 93° (E) 00:40:47 437.445
QB50P1 28 Aug 00:40:03 00:43:57 36° 99° (E) 00:47:48 145.935-145.965
DX 1 28 Aug 00:45:02 00:49:15 51° 75° (ENE) 00:53:30 434.975-435.025
ANTELSAT 28 Aug 00:46:32 00:49:37 20° 289° (WNW) 00:52:41 437.575/2403.000
SPROUT 28 Aug 00:47:00 00:50:58 37° 74° (ENE) 00:54:57 437.525
Cosmos 2499 28 Aug 00:47:23 00:54:27 85° 266° (W) 01:01:42 435.465 / 435.565
POPSAT HIP 1 28 Aug 00:49:56 00:54:00 48° 100° (E) 00:58:02 437.405
50 SAT 28 Aug 00:54:18 00:57:51 67° 260° (W) 01:01:24 437.505
TISAT 1 28 Aug 01:07:53 01:09:33 12° 68° (ENE) 01:11:13 437.305
ESTCUBE 1 28 Aug 01:10:39 01:14:18 24° 263° (W) 01:17:57 437.505/2401.250
PHONESAT 2.4 28 Aug 01:14:28 01:17:13 35° 146° (SE) 01:20:00 2401.200-2431.200
DUCHIFAT 1 28 Aug 01:17:19 01:21:30 82° 284° (WNW) 01:25:40 145.980
AISAT 28 Aug 01:17:30 01:21:36 37° 261° (W) 01:25:45 437.250
DANDE 28 Aug 01:18:16 01:20:47 45° 279° (W) 01:23:19 436.750
QB50P2 28 Aug 01:20:20 01:24:29 59° 284° (WNW) 01:28:36 145.880/145.840
POLYITAN 1 28 Aug 01:22:52 01:27:00 58° 284° (WNW) 01:31:05 437.675
UKube-1 28 Aug 01:25:04 01:29:20 64° 258° (WSW) 01:33:38 .
NANOSAT C BR1 28 Aug 01:31:22 01:35:25 48° 285° (WNW) 01:39:25 145.865
GONETS M04 28 Aug 01:46:53 01:53:57 28° 275° (W) 02:01:01
JAS-2 28 Aug 02:01:14 02:08:16 74° 285° (WNW) 02:15:57 435.910
VELOX 1 28 Aug 02:08:32 02:09:14 10° 267° (W) 02:09:57 145.980
Oscar 19 28 Aug 02:10:00 02:14:09 24° 96° (E) 02:18:16 437.125/150
BUGSAT 1 28 Aug 02:11:52 02:15:44 41° 286° (WNW) 02:19:33 437.445
O/OREOS (USA 219) 28 Aug 02:14:30 02:17:09 15° 260° (W) 02:19:48 437.305
QB50P1 28 Aug 02:17:19 02:19:20 13° 291° (WNW) 02:21:21 145.935-145.965
SWISSCUBE 28 Aug 02:21:02 02:24:17 19° 69° (ENE) 02:27:34 437.505
SPROUT 28 Aug 02:24:59 02:27:00 13° 266° (W) 02:29:00 437.525
POPSAT HIP 1 28 Aug 02:29:00 02:29:17 10° 293° (WNW) 02:29:33 437.405
BEESAT 28 Aug 02:37:26 02:41:19 25° 71° (ENE) 02:45:11 436.000
RS-15 28 Aug 02:38:22 02:49:41 70° 299° (WNW) 03:01:44 29.354- 29.394
TISAT 1 28 Aug 02:40:45 02:44:46 42° 261° (W) 02:48:48 437.305
PHONESAT 2.4 28 Aug 02:50:57 02:53:36 27° 339° (NNW) 02:56:14 2401.200-2431.200
Gurwin Techsat 1B 28 Aug 03:21:46 03:27:00 58° 101° (E) 03:32:13 435.225
ITUPSAT 1 28 Aug 03:24:02 03:28:48 86° 77° (ENE) 03:33:35 437.325
ITAMSAT 1 28 Aug 03:25:43 03:28:43 15° 95° (E) 03:31:42 435.822/435.867
Oscar 19 28 Aug 03:48:52 03:53:23 31° 289° (WNW) 03:57:52 437.125/150
JAS-2 28 Aug 03:51:14 03:52:22 10° 298° (WNW) 03:53:29 435.910
SWISSCUBE 28 Aug 03:57:31 04:01:47 33° 261° (W) 04:06:05 437.505
AO-7 28 Aug 04:01:52 04:07:54 22° 97° (E) 04:13:54 29.400- 29.500
BEESAT 28 Aug 04:15:07 04:18:57 24° 263° (W) 04:22:48 436.000
KKS-1 28 Aug 04:16:43 04:20:38 30° 72° (ENE) 04:24:33 437.445
